{"data":{"norad_id":67801,"intl_designator":"2026-032E","name":"STARLINK-36773","alt_names":[],"object_type":"PAYLOAD","status":"ACTIVE","operator":null,"country":"US","launch_date":"2026-02-15","launch_site_code":"AFWTR","launch_vehicle":null,"mission":null,"orbit_class":"UNKNOWN","rcs_meters":null,"size_class":null,"mass_kg":null,"dimensions":null,"purposes":["comms"],"wikipedia_slug":null,"has_3d_model":false,"image_url":null,"decayed_at":null,"tle_current":{"epoch":"2026-09-19T06:41:49.962336Z","epoch_age_seconds":171970,"freshness":"FRESH","line1":"1 67801U 26032E   26262.27905049  .00013831  00000+0  42996-3 0  9997","line2":"2 67801  97.2854  88.6348 0001619  88.6158 271.5270 15.33444219 34624","mean_motion":15.33444219,"eccentricity":0.0001619,"inclination_deg":97.2854,"raan_deg":88.6348,"arg_perigee_deg":88.6158,"mean_anomaly_deg":271.527,"bstar":0.00042996,"rev_number":3462,"period_min":93.906252484297,"perigee_km":464.43750598918,"apogee_km":466.65349038209,"semimajor_km":6843.6824981856,"source":"CELESTRAK","updated_at":"2026-09-20T09:00:43.662377Z"}}}